This demonstration page uses our WeatherBlox Daily Observations layout. Learn more.

Left ArrowRight Arrow

41.86663, -103.66717

Hourly Observations for September 20, 2020

Temp ( °F °C ) Dew Point ( °F °C ) Humidity (%) Winds ( mph kmh ) Pressure ( in mb ) Visibility ( mi km ) Precip ( " mm )
12:53 am 00:53 Mostly Clear 66 18.9 44 6.7 45 45 WNW 13 20 29.84 1010 10 16.0934 0 0
1:53 am 01:53 Clear 63 17.2 45 7.2 52 52 WNW 12 19 29.84 1010 10 16.0934 0 0
2:53 am 02:53 Clear 64 17.8 45 7.2 50 50 WNW 10 17 29.82 1010 10 16.0934 0 0
3:53 am 03:53 Mostly Clear 65 18.3 45 7.2 49 49 WNW 10 17 29.82 1010 10 16.0934 0 0
4:53 am 04:53 Clear 63 17.2 45 7.2 52 52 NW 14 22 29.84 1011 10 16.0934 0 0
5:53 am 05:53 Clear 60 15.6 45 7.2 58 58 W 3 6 29.87 1011 10 16.0934 0 0
6:53 am 06:53 Sunny 59 15 44 6.7 58 58 WNW 8 13 29.9 1012 10 16.0934 0 0
7:53 am 07:53 Sunny 65 18.3 40 4.4 40 40 W 15 24 29.91 1013 10 16.0934 0 0
8:53 am 08:53 Sunny 71 21.7 38 3.3 30 30 W 22 35 29.93 1014 10 16.0934 0 0
9:53 am 09:53 Sunny 74 23.3 39 3.9 28 28 WNW 17 28 29.93 1014 10 16.0934 0 0
10:53 am 10:53 Sunny 77 25 35 1.7 22 22 W 21 33 29.93 1014 10 16.0934 0 0
11:53 am 11:53 Sunny 80 26.7 31 -0.6 17 17 WNW 24 39 29.92 1013 10 16.0934 0 0
12:53 pm 12:53 Sunny 81 27.2 34 1.1 18 18 NW 18 30 29.92 1013 10 16.0934 0 0
1:53 pm 13:53 Sunny 83 28.3 34 1.1 17 17 WNW 22 35 29.9 1012 10 16.0934 0 0
2:53 pm 14:53 Sunny 84 28.9 35 1.7 17 17 WNW 14 22 29.89 1012 10 16.0934 0 0
3:53 pm 15:53 Sunny 82 27.8 33 0.6 17 17 WNW 8 13 29.91 1013 10 16.0934 0 0
4:53 pm 16:53 Sunny 83 28.3 32 0 16 16 WNW 9 15 29.91 1013 10 16.0934 0 0
5:53 pm 17:53 Sunny 78 25.6 36 2.2 22 22 NNW 5 7 29.94 1014 10 16.0934 0 0
6:53 pm 18:53 Sunny 75 23.9 35 1.7 23 23 Calm 29.96 1015 10 16.0934 0 0
7:53 pm 19:53 Clear 66 18.9 38 3.3 36 36 ESE 6 9 29.98 1015 10 16.0934 0 0
8:53 pm 20:53 Clear 62 16.7 40 4.4 44 44 ESE 5 7 29.99 1016 10 16.0934 0 0
9:53 pm 21:53 Clear 58 14.4 44 6.7 60 60 E 8 13 30.01 1016 9 14.48406 0 0
10:53 pm 22:53 Clear 58 14.4 44 6.7 60 60 E 5 7 30 1016 10 16.0934 0 0
11:53 pm 23:53 Clear 59 15 45 7.2 60 60 E 6 9 29.99 1016 10 16.0934 0 0

Powered by AerisWeather